Willits, CA (95490)

2:44 PM PDT on August 29, 2015 (GMT -0700)
Mendocino College Willits | | Change Station
CLOSE
Current Station
Personal Weather Station
Location: Willits, CA
Elevation: 1355 ft
Nearby Weather Stations

Elev 1355 ft 39.41 °N, 123.35 °W | Updated 3 minutes ago

Clear
Clear
74.6 °F
Feels Like 77 °F
N
4.0
Wind Variable Wind from North
Gusts 4.0 mph

Today
High -- | Low -- °F
--% Chance of Precip.
Yesterday
High -- | Low -- °F
Precip. -- in
6:38 AM 7:49 PM
Full, 100% visible
Pressure 29.94 in
Visibility 10.0 miles
Clouds Clear
Heat Index 77 °F
Dew Point 52 °F
Humidity 46%
Rainfall 0.11 in
Snow Depth Not available.
UV 9 out of 12
Pollen 3.70 out of 12
Air Quality Not available.
Flu Activity Not available.
METAR KUKI 292056Z AUTO 00000KT 10SM CLR 27/09 A2997 RMK AO2 SLP139 T02670089 58005
Pressure 29.94 in
Visibility 10.0 miles
Clouds Clear
Heat Index 77 °F
Dew Point 52 °F
Humidity 46%
Rainfall 0.11 in
Snow Depth Not available.
UV 9 out of 12
Pollen 3.70 out of 12
Air Quality Not available.
Flu Activity Not available.
METAR KUKI 292056Z AUTO 00000KT 10SM CLR 27/09 A2997 RMK AO2 SLP139 T02670089 58005

10-Day Weather Forecast

×

Almanac

Astronomy

Aug. 29, 2015 Rise Set
Actual Time
Civil Twilight
Nautical Twilight
Astronomical Twilight
Moon
Length of Visible Light
Length of Day
Tomorrow will be .
, % of the Moon is Illuminated

Today's Extremes

State Highs State Lows

Community

WunderPhotos

Upload Photos

1,850,795 photos uploaded!

WunderBlogs® & News

Nearby

Air Quality

  Air Quality AQ Index Pollutant
Not available.

Snow Depth

Station Depth Elevation

Earthquake Activity

City Distance Mag. Time & Date
Minimum magnitude displayed is 2.5.

Coastal Water Temperatures

Place Temperature

Stations

Nearby Weather Stations

Station Location Temp. Windchill Dew Point Humidity Wind Precip. Elev Updated Type